Time,TemperatureF,DewpointF,PressureIn,WindDirection,WindDirectionDegrees,WindSpeedMPH,WindSpeedGustMPH,Humidity,HourlyPrecipIn,Conditions,Clouds,dailyrainin,SoftwareType,DateUTC
2013-02-14 00:00:00,32.5,31.0,29.63,WNW,294,0.0,0.0,94,0.00,,---,0.00,VWS V14.01,2013-02-14 06:00:00,
2013-02-14 00:05:00,32.5,31.0,29.63,WNW,295,0.0,0.0,94,0.00,,---,0.00,VWS V14.01,2013-02-14 06:05:00,
2013-02-14 00:10:00,32.5,31.0,29.63,WNW,296,0.0,0.0,94,0.00,,---,0.00,VWS V14.01,2013-02-14 06:10:00,
2013-02-14 00:15:00,32.5,31.0,29.63,WNW,296,0.0,0.0,94,0.00,,---,0.00,VWS V14.01,2013-02-14 06:15:00,
2013-02-14 00:20:00,32.5,31.0,29.64,NW,308,0.0,0.0,94,0.00,,---,0.00,VWS V14.01,2013-02-14 06:20:00,
2013-02-14 00:25:00,32.5,31.0,29.64,NW,308,0.0,0.0,94,0.00,,---,0.00,VWS V14.01,2013-02-14 06:25:00,
2013-02-14 00:30:00,32.5,31.0,29.64,NW,317,0.0,0.0,94,0.00,,---,0.00,VWS V14.01,2013-02-14 06:30:00,
2013-02-14 00:35:00,32.5,31.0,29.64,NW,322,0.0,0.0,94,0.00,,---,0.00,VWS V14.01,2013-02-14 06:35:00,
2013-02-14 00:40:00,32.5,31.0,29.64,NNW,327,0.0,1.0,94,0.00,,---,0.00,VWS V14.01,2013-02-14 06:40:00,
2013-02-14 00:45:00,32.5,31.0,29.64,NNW,348,0.0,1.0,94,0.00,,---,0.00,VWS V14.01,2013-02-14 06:45:00,
2013-02-14 00:50:00,32.4,30.9,29.64,NNW,339,0.0,1.0,94,0.00,,---,0.00,VWS V14.01,2013-02-14 06:50:00,
2013-02-14 00:55:00,32.4,31.1,29.65,North,353,0.0,1.0,95,0.00,,---,0.00,VWS V14.01,2013-02-14 06:55:00,
2013-02-14 01:00:00,32.4,31.1,29.65,North,349,0.0,1.0,95,0.00,,---,0.00,VWS V14.01,2013-02-14 07:00:00,
2013-02-14 01:05:00,32.4,31.1,29.65,NE,45,0.0,1.0,95,0.00,,---,0.00,VWS V14.01,2013-02-14 07:05:00,
2013-02-14 01:10:00,32.4,31.1,29.66,North,356,0.0,1.0,95,0.00,,---,0.00,VWS V14.01,2013-02-14 07:10:00,
2013-02-14 01:15:00,32.4,31.1,29.66,North,358,0.0,1.0,95,0.00,,---,0.00,VWS V14.01,2013-02-14 07:15:00,
2013-02-14 01:20:00,32.4,31.1,29.66,North,1,0.0,2.0,95,0.00,,---,0.00,VWS V14.01,2013-02-14 07:20:00,
2013-02-14 01:25:00,32.4,31.1,29.66,North,2,1.0,2.0,95,0.00,,---,0.00,VWS V14.01,2013-02-14 07:25:00,
2013-02-14 01:30:00,32.4,31.1,29.67,NNW,336,0.0,1.0,95,0.00,,---,0.00,VWS V14.01,2013-02-14 07:30:00,
2013-02-14 01:35:00,32.4,31.1,29.67,North,351,0.0,1.0,95,0.00,,---,0.00,VWS V14.01,2013-02-14 07:35:00,
2013-02-14 01:40:00,32.3,31.0,29.67,NNW,332,0.0,1.0,95,0.00,,---,0.00,VWS V14.01,2013-02-14 07:40:00,
2013-02-14 01:45:00,32.2,30.9,29.68,North,349,0.0,1.0,95,0.00,,---,0.00,VWS V14.01,2013-02-14 07:45:00,
2013-02-14 01:50:00,32.1,30.8,29.68,NNE,13,0.0,2.0,95,0.00,,---,0.00,VWS V14.01,2013-02-14 07:50:00,
2013-02-14 01:55:00,32.1,30.8,29.68,NE,55,0.0,2.0,95,0.00,,---,0.00,VWS V14.01,2013-02-14 07:55:00,
2013-02-14 02:00:00,32.0,30.7,29.69,North,4,0.0,1.0,95,0.00,,---,0.00,VWS V14.01,2013-02-14 08:00:00,
2013-02-14 02:05:00,31.9,30.6,29.69,NNW,346,0.0,1.0,95,0.00,,---,0.00,VWS V14.01,2013-02-14 08:05:00,
2013-02-14 02:10:00,31.8,30.5,29.70,North,351,0.0,2.0,95,0.00,,---,0.00,VWS V14.01,2013-02-14 08:10:00,
2013-02-14 02:15:00,31.7,30.4,29.70,NW,322,0.0,0.0,95,0.00,,---,0.00,VWS V14.01,2013-02-14 08:15:00,
2013-02-14 02:20:00,31.7,30.4,29.70,NNW,345,0.0,1.0,95,0.00,,---,0.00,VWS V14.01,2013-02-14 08:20:00,
2013-02-14 02:25:00,31.6,30.3,29.71,ENE,62,1.0,2.0,95,0.00,,---,0.00,VWS V14.01,2013-02-14 08:25:00,
2013-02-14 02:30:00,31.6,30.3,29.71,North,358,0.0,1.0,95,0.00,,---,0.00,VWS V14.01,2013-02-14 08:30:00,
2013-02-14 02:35:00,31.5,30.2,29.71,NNW,342,0.0,2.0,95,0.00,,---,0.00,VWS V14.01,2013-02-14 08:35:00,
2013-02-14 02:40:00,31.4,30.1,29.72,NNW,329,0.0,2.0,95,0.00,,---,0.00,VWS V14.01,2013-02-14 08:40:00,
2013-02-14 02:45:00,31.4,30.1,29.72,North,358,0.0,0.0,95,0.00,,---,0.00,VWS V14.01,2013-02-14 08:45:00,
2013-02-14 02:50:00,31.4,30.1,29.72,NW,308,0.0,2.0,95,0.00,,---,0.00,VWS V14.01,2013-02-14 08:50:00,
2013-02-14 02:55:00,31.3,30.0,29.72,North,351,0.0,2.0,95,0.00,,---,0.00,VWS V14.01,2013-02-14 08:55:00,
2013-02-14 03:00:00,31.1,29.8,29.73,NW,318,0.0,2.0,95,0.00,,---,0.00,VWS V14.01,2013-02-14 09:00:00,
2013-02-14 03:05:00,30.9,29.6,29.73,NNE,12,1.0,2.0,95,0.00,,---,0.00,VWS V14.01,2013-02-14 09:05:00,
2013-02-14 03:10:00,30.6,29.3,29.73,WNW,299,2.0,3.0,95,0.00,,---,0.00,VWS V14.01,2013-02-14 09:10:00,
2013-02-14 03:15:00,30.5,29.2,29.73,North,356,0.0,1.0,95,0.00,,---,0.00,VWS V14.01,2013-02-14 09:15:00,
2013-02-14 03:19:00,30.4,29.1,29.74,North,355,0.0,1.0,95,0.00,,---,0.00,VWS V14.01,2013-02-14 09:19:00,
2013-02-14 03:24:00,30.3,29.0,29.74,North,356,0.0,2.0,95,0.00,,---,0.00,VWS V14.01,2013-02-14 09:24:00,
2013-02-14 03:29:00,30.2,28.9,29.74,NNW,327,0.0,1.0,95,0.00,,---,0.00,VWS V14.01,2013-02-14 09:29:00,
2013-02-14 03:34:00,30.2,28.9,29.74,WNW,287,0.0,2.0,95,0.00,,---,0.00,VWS V14.01,2013-02-14 09:34:00,
2013-02-14 03:39:00,30.2,28.9,29.75,NNW,347,0.0,2.0,95,0.00,,---,0.00,VWS V14.01,2013-02-14 09:39:00,
2013-02-14 03:44:00,30.1,28.8,29.75,NNW,335,0.0,1.0,95,0.00,,---,0.00,VWS V14.01,2013-02-14 09:44:00,
2013-02-14 03:49:00,30.1,28.8,29.75,NNW,335,0.0,1.0,95,0.00,,---,0.00,VWS V14.01,2013-02-14 09:49:00,
2013-02-14 03:54:00,30.1,28.8,29.75,NNW,335,0.0,1.0,95,0.00,,---,0.00,VWS V14.01,2013-02-14 09:54:00,
2013-02-14 03:59:00,30.1,28.8,29.76,NNW,329,0.0,1.0,95,0.00,,---,0.00,VWS V14.01,2013-02-14 09:59:00,
2013-02-14 04:04:00,30.0,28.7,29.76,NNW,344,0.0,1.0,95,0.00,,---,0.00,VWS V14.01,2013-02-14 10:04:00,
2013-02-14 04:09:00,30.0,28.7,29.76,NW,325,0.0,1.0,95,0.00,,---,0.00,VWS V14.01,2013-02-14 10:09:00,
2013-02-14 04:14:00,29.9,28.4,29.77,WNW,299,1.0,1.0,94,0.00,,---,0.00,VWS V14.01,2013-02-14 10:14:00,
2013-02-14 04:19:00,29.8,28.5,29.77,NW,306,0.0,1.0,95,0.00,,---,0.00,VWS V14.01,2013-02-14 10:19:00,
2013-02-14 04:24:00,29.8,28.3,29.77,NW,306,0.0,1.0,94,0.00,,---,0.00,VWS V14.01,2013-02-14 10:24:00,
2013-02-14 04:29:00,29.7,28.2,29.78,WNW,300,0.0,2.0,94,0.00,,---,0.00,VWS V14.01,2013-02-14 10:29:00,
2013-02-14 04:34:00,29.6,28.1,29.78,WNW,296,0.0,2.0,94,0.00,,---,0.00,VWS V14.01,2013-02-14 10:34:00,
2013-02-14 04:39:00,29.4,27.9,29.78,NW,322,0.0,2.0,94,0.00,,---,0.00,VWS V14.01,2013-02-14 10:39:00,
2013-02-14 04:44:00,29.2,27.7,29.78,WNW,296,0.0,1.0,94,0.00,,---,0.00,VWS V14.01,2013-02-14 10:44:00,
2013-02-14 04:49:00,28.9,27.4,29.79,WNW,296,0.0,1.0,94,0.00,,---,0.00,VWS V14.01,2013-02-14 10:49:00,
2013-02-14 04:54:00,28.6,27.1,29.79,West,275,1.0,1.0,94,0.00,,---,0.00,VWS V14.01,2013-02-14 10:54:00,
2013-02-14 04:59:00,28.4,26.9,29.80,NW,315,0.0,1.0,94,0.00,,---,0.00,VWS V14.01,2013-02-14 10:59:00,
2013-02-14 05:04:00,28.2,26.7,29.80,WNW,291,0.0,1.0,94,0.00,,---,0.00,VWS V14.01,2013-02-14 11:04:00,
2013-02-14 05:09:00,28.1,26.6,29.80,WNW,291,1.0,1.0,94,0.00,,---,0.00,VWS V14.01,2013-02-14 11:09:00,
2013-02-14 05:14:00,28.0,26.5,29.80,NW,312,0.0,1.0,94,0.00,,---,0.00,VWS V14.01,2013-02-14 11:14:00,
2013-02-14 05:19:00,27.9,26.4,29.81,WNW,295,0.0,1.0,94,0.00,,---,0.00,VWS V14.01,2013-02-14 11:19:00,
2013-02-14 05:24:00,27.7,26.2,29.81,NW,308,0.0,2.0,94,0.00,,---,0.00,VWS V14.01,2013-02-14 11:24:00,
2013-02-14 05:29:00,27.7,26.2,29.81,WNW,294,0.0,0.0,94,0.00,,---,0.00,VWS V14.01,2013-02-14 11:29:00,
2013-02-14 05:34:00,27.5,26.0,29.81,NNW,332,0.0,2.0,94,0.00,,---,0.00,VWS V14.01,2013-02-14 11:34:00,
2013-02-14 05:39:00,27.4,25.9,29.81,West,277,0.0,2.0,94,0.00,,---,0.00,VWS V14.01,2013-02-14 11:39:00,
2013-02-14 05:44:00,27.3,25.8,29.82,West,279,0.0,0.0,94,0.00,,---,0.00,VWS V14.01,2013-02-14 11:44:00,
2013-02-14 05:49:00,27.1,25.6,29.82,NNW,332,0.0,0.0,94,0.00,,---,0.00,VWS V14.01,2013-02-14 11:49:00,
2013-02-14 05:54:00,27.0,25.5,29.82,NW,307,0.0,1.0,94,0.00,,---,0.00,VWS V14.01,2013-02-14 11:54:00,
2013-02-14 05:59:00,26.9,25.4,29.83,WNW,282,1.0,1.0,94,0.00,,---,0.00,VWS V14.01,2013-02-14 11:59:00,
2013-02-14 06:04:00,26.7,25.0,29.82,WNW,287,0.0,1.0,93,0.00,,---,0.00,VWS V14.01,2013-02-14 12:04:00,
2013-02-14 06:09:00,26.6,25.1,29.82,WNW,282,0.0,1.0,94,0.00,,---,0.00,VWS V14.01,2013-02-14 12:09:00,
2013-02-14 06:14:00,26.5,25.0,29.83,WNW,292,0.0,0.0,94,0.00,,---,0.00,VWS V14.01,2013-02-14 12:14:00,
2013-02-14 06:19:00,26.3,24.8,29.83,WNW,292,0.0,0.0,94,0.00,,---,0.00,VWS V14.01,2013-02-14 12:19:00,
2013-02-14 06:24:00,26.2,24.7,29.83,WNW,292,0.0,1.0,94,0.00,,---,0.00,VWS V14.01,2013-02-14 12:24:00,
2013-02-14 06:29:00,26.1,24.6,29.83,WNW,292,0.0,1.0,94,0.00,,---,0.00,VWS V14.01,2013-02-14 12:29:00,
2013-02-14 06:34:00,25.9,24.4,29.83,WNW,291,0.0,1.0,94,0.00,,---,0.00,VWS V14.01,2013-02-14 12:34:00,
2013-02-14 06:39:00,25.8,24.3,29.83,WNW,291,0.0,1.0,94,0.00,,---,0.00,VWS V14.01,2013-02-14 12:39:00,
2013-02-14 06:44:00,25.7,24.2,29.84,WNW,291,0.0,0.0,94,0.00,,---,0.00,VWS V14.01,2013-02-14 12:44:00,
2013-02-14 06:49:00,25.6,24.1,29.84,WNW,291,0.0,0.0,94,0.00,,---,0.00,VWS V14.01,2013-02-14 12:49:00,
2013-02-14 06:54:00,25.5,24.0,29.84,WNW,291,0.0,0.0,94,0.00,,---,0.00,VWS V14.01,2013-02-14 12:54:00,
2013-02-14 06:59:00,25.5,24.0,29.84,WNW,291,0.0,0.0,94,0.00,,---,0.00,VWS V14.01,2013-02-14 12:59:00,
2013-02-14 07:04:00,25.6,24.1,29.84,WNW,291,0.0,0.0,94,0.00,,---,0.00,VWS V14.01,2013-02-14 13:04:00,
2013-02-14 07:09:00,25.5,24.0,29.84,WNW,291,0.0,0.0,94,0.00,,---,0.00,VWS V14.01,2013-02-14 13:09:00,
2013-02-14 07:14:00,25.4,23.9,29.85,WNW,285,0.0,1.0,94,0.00,,---,0.00,VWS V14.01,2013-02-14 13:14:00,
2013-02-14 07:19:00,25.3,23.8,29.85,WNW,285,0.0,1.0,94,0.00,,---,0.00,VWS V14.01,2013-02-14 13:19:00,
2013-02-14 07:24:00,25.2,23.7,29.85,WNW,285,0.0,1.0,94,0.00,,---,0.00,VWS V14.01,2013-02-14 13:24:00,
2013-02-14 07:29:00,25.1,23.6,29.85,WNW,296,0.0,0.0,94,0.00,,---,0.00,VWS V14.01,2013-02-14 13:29:00,
2013-02-14 07:34:00,24.9,23.2,29.85,WNW,296,0.0,0.0,93,0.00,,---,0.00,VWS V14.01,2013-02-14 13:34:00,
2013-02-14 07:39:00,24.8,23.3,29.86,WNW,296,0.0,0.0,94,0.00,,---,0.00,VWS V14.01,2013-02-14 13:39:00,
2013-02-14 07:44:00,24.8,23.3,29.86,WNW,296,0.0,1.0,94,0.00,,---,0.00,VWS V14.01,2013-02-14 13:44:00,
2013-02-14 07:49:00,24.9,23.4,29.87,WNW,296,0.0,1.0,94,0.00,,---,0.00,VWS V14.01,2013-02-14 13:49:00,
2013-02-14 07:54:00,25.0,23.5,29.87,WNW,294,0.0,1.0,94,0.00,,---,0.00,VWS V14.01,2013-02-14 13:54:00,
2013-02-14 07:59:00,25.3,23.8,29.87,West,280,0.0,0.0,94,0.00,,---,0.00,VWS V14.01,2013-02-14 13:59:00,
2013-02-14 08:04:00,25.6,24.1,29.87,NW,312,1.0,3.0,94,0.00,,---,0.00,VWS V14.01,2013-02-14 14:04:00,
2013-02-14 08:09:00,26.0,24.5,29.87,WNW,289,1.0,3.0,94,0.00,,---,0.00,VWS V14.01,2013-02-14 14:09:00,
2013-02-14 08:14:00,26.4,24.9,29.88,WNW,300,0.0,1.0,94,0.00,,---,0.00,VWS V14.01,2013-02-14 14:14:00,
2013-02-14 08:19:00,26.7,25.2,29.88,WNW,296,0.0,1.0,94,0.00,,---,0.00,VWS V14.01,2013-02-14 14:19:00,
2013-02-14 08:24:00,26.9,25.1,29.88,NW,306,0.0,2.0,93,0.00,,---,0.00,VWS V14.01,2013-02-14 14:24:00,
2013-02-14 08:29:00,27.0,25.2,29.88,NW,308,1.0,1.0,93,0.00,,---,0.00,VWS V14.01,2013-02-14 14:29:00,
2013-02-14 08:34:00,27.0,25.2,29.88,WNW,291,0.0,1.0,93,0.00,,---,0.00,VWS V14.01,2013-02-14 14:34:00,
2013-02-14 08:39:00,27.1,25.4,29.88,WNW,291,0.0,1.0,93,0.00,,---,0.00,VWS V14.01,2013-02-14 14:39:00,
2013-02-14 08:44:00,27.3,25.5,29.88,WNW,291,0.0,0.0,93,0.00,,---,0.00,VWS V14.01,2013-02-14 14:44:00,
2013-02-14 08:49:00,27.4,25.6,29.89,WNW,303,0.0,0.0,93,0.00,,---,0.00,VWS V14.01,2013-02-14 14:49:00,
2013-02-14 08:54:00,27.5,25.8,29.89,WNW,303,0.0,0.0,93,0.00,,---,0.00,VWS V14.01,2013-02-14 14:54:00,
2013-02-14 08:59:00,27.7,25.7,29.89,WNW,301,0.0,0.0,92,0.00,,---,0.00,VWS V14.01,2013-02-14 14:59:00,
2013-02-14 09:04:00,28.1,26.3,29.89,NW,306,0.0,0.0,93,0.00,,---,0.00,VWS V14.01,2013-02-14 15:04:00,
2013-02-14 09:09:00,28.7,26.9,29.89,NW,306,0.0,0.0,93,0.00,,---,0.00,VWS V14.01,2013-02-14 15:09:00,
2013-02-14 09:14:00,29.1,27.1,29.89,NW,306,0.0,0.0,92,0.00,,---,0.00,VWS V14.01,2013-02-14 15:14:00,
2013-02-14 09:19:00,29.3,27.0,29.89,West,281,0.0,0.0,91,0.00,,---,0.00,VWS V14.01,2013-02-14 15:19:00,
2013-02-14 09:24:00,29.2,26.6,29.89,SW,232,1.0,2.0,90,0.00,,---,0.00,VWS V14.01,2013-02-14 15:24:00,
2013-02-14 09:29:00,29.5,27.2,29.89,NW,320,0.0,1.0,91,0.00,,---,0.00,VWS V14.01,2013-02-14 15:29:00,
2013-02-14 09:34:00,29.7,27.1,29.89,WNW,288,0.0,1.0,90,0.00,,---,0.00,VWS V14.01,2013-02-14 15:34:00,
2013-02-14 09:39:00,29.8,27.2,29.89,WNW,303,0.0,1.0,90,0.00,,---,0.00,VWS V14.01,2013-02-14 15:39:00,
2013-02-14 09:44:00,30.2,27.6,29.90,West,280,0.0,0.0,90,0.00,,---,0.00,VWS V14.01,2013-02-14 15:44:00,
2013-02-14 09:49:00,30.6,28.0,29.90,NW,308,0.0,0.0,90,0.00,,---,0.00,VWS V14.01,2013-02-14 15:49:00,
2013-02-14 09:54:00,30.8,28.0,29.90,WNW,293,0.0,1.0,89,0.00,,---,0.00,VWS V14.01,2013-02-14 15:54:00,
2013-02-14 09:59:00,30.7,27.6,29.90,WNW,296,0.0,1.0,88,0.00,,---,0.00,VWS V14.01,2013-02-14 15:59:00,
2013-02-14 10:04:00,30.5,27.4,29.90,NW,315,0.0,1.0,88,0.00,,---,0.00,VWS V14.01,2013-02-14 16:04:00,
2013-02-14 10:09:00,30.5,27.4,29.90,West,270,0.0,1.0,88,0.00,,---,0.00,VWS V14.01,2013-02-14 16:09:00,
2013-02-14 10:14:00,30.9,27.8,29.90,WNW,299,0.0,1.0,88,0.00,,---,0.00,VWS V14.01,2013-02-14 16:14:00,
2013-02-14 10:19:00,31.0,27.6,29.91,West,266,1.0,1.0,87,0.00,,---,0.00,VWS V14.01,2013-02-14 16:19:00,
2013-02-14 10:24:00,31.3,27.9,29.91,NW,305,1.0,1.0,87,0.00,,---,0.00,VWS V14.01,2013-02-14 16:24:00,
2013-02-14 10:29:00,31.4,27.7,29.91,NW,318,0.0,1.0,86,0.00,,---,0.00,VWS V14.01,2013-02-14 16:29:00,
2013-02-14 10:34:00,31.6,27.9,29.91,West,264,0.0,1.0,86,0.00,,---,0.00,VWS V14.01,2013-02-14 16:34:00,
2013-02-14 10:39:00,32.0,28.3,29.91,NW,313,0.0,2.0,86,0.00,,---,0.00,VWS V14.01,2013-02-14 16:39:00,
2013-02-14 10:44:00,31.8,27.8,29.91,WNW,288,0.0,2.0,85,0.00,,---,0.00,VWS V14.01,2013-02-14 16:44:00,
2013-02-14 10:49:00,31.8,27.8,29.91,WNW,293,0.0,4.0,85,0.00,,---,0.00,VWS V14.01,2013-02-14 16:49:00,
2013-02-14 10:54:00,31.8,27.8,29.92,WNW,292,0.0,4.0,85,0.00,,---,0.00,VWS V14.01,2013-02-14 16:54:00,
2013-02-14 10:59:00,32.0,28.3,29.92,North,360,2.0,2.0,86,0.00,,---,0.00,VWS V14.01,2013-02-14 16:59:00,
2013-02-14 11:04:00,32.2,28.2,29.92,WNW,288,4.0,4.0,85,0.00,,---,0.00,VWS V14.01,2013-02-14 17:04:00,
2013-02-14 11:09:00,32.3,28.3,29.92,WNW,303,1.0,4.0,85,0.00,,---,0.00,VWS V14.01,2013-02-14 17:09:00,
2013-02-14 11:14:00,32.3,28.3,29.92,NW,308,1.0,1.0,85,0.00,,---,0.00,VWS V14.01,2013-02-14 17:14:00,
2013-02-14 11:19:00,32.4,28.1,29.93,NW,318,3.0,3.0,84,0.00,,---,0.00,VWS V14.01,2013-02-14 17:19:00,
2013-02-14 11:24:00,32.2,27.9,29.93,WNW,293,0.0,3.0,84,0.00,,---,0.00,VWS V14.01,2013-02-14 17:24:00,
2013-02-14 11:29:00,32.2,27.9,29.93,NNW,329,2.0,2.0,84,0.00,,---,0.00,VWS V14.01,2013-02-14 17:29:00,
2013-02-14 11:34:00,32.1,27.8,29.93,West,280,1.0,3.0,84,0.00,,---,0.00,VWS V14.01,2013-02-14 17:34:00,
2013-02-14 11:39:00,32.1,27.8,29.93,WNW,293,2.0,4.0,84,0.00,,---,0.00,VWS V14.01,2013-02-14 17:39:00,
2013-02-14 11:44:00,32.1,27.8,29.93,WNW,282,1.0,3.0,84,0.00,,---,0.00,VWS V14.01,2013-02-14 17:44:00,
2013-02-14 11:49:00,31.9,27.6,29.94,West,264,3.0,4.0,84,0.00,,---,0.00,VWS V14.01,2013-02-14 17:49:00,
2013-02-14 11:54:00,31.6,27.0,29.94,West,281,3.0,5.0,83,0.00,,---,0.00,VWS V14.01,2013-02-14 17:54:00,
2013-02-14 11:59:00,31.6,27.3,29.94,West,264,2.0,3.0,84,0.00,,---,0.00,VWS V14.01,2013-02-14 17:59:00,
2013-02-14 12:04:00,31.7,27.4,29.94,WNW,293,1.0,6.0,84,0.00,,---,0.00,VWS V14.01,2013-02-14 18:04:00,
2013-02-14 12:09:00,31.7,27.4,29.94,WNW,303,3.0,6.0,84,0.00,,---,0.00,VWS V14.01,2013-02-14 18:09:00,
2013-02-14 12:14:00,31.6,27.3,29.94,NW,308,0.0,4.0,84,0.00,,---,0.00,VWS V14.01,2013-02-14 18:14:00,
2013-02-14 12:19:00,31.5,27.2,29.94,NNW,332,1.0,4.0,84,0.00,,---,0.00,VWS V14.01,2013-02-14 18:19:00,
2013-02-14 12:24:00,31.3,27.0,29.94,WNW,285,1.0,5.0,84,0.00,,---,0.00,VWS V14.01,2013-02-14 18:24:00,
2013-02-14 12:29:00,31.5,27.5,29.94,WNW,295,5.0,5.0,85,0.01,,---,0.01,VWS V14.01,2013-02-14 18:29:00,
2013-02-14 12:34:00,31.3,27.0,29.95,NNW,332,2.0,5.0,84,0.01,,---,0.01,VWS V14.01,2013-02-14 18:34:00,
2013-02-14 12:39:00,31.1,26.8,29.95,NW,312,0.0,5.0,84,0.01,,---,0.01,VWS V14.01,2013-02-14 18:39:00,
2013-02-14 12:44:00,31.0,26.7,29.95,WNW,288,1.0,4.0,84,0.01,,---,0.01,VWS V14.01,2013-02-14 18:44:00,
2013-02-14 12:49:00,31.0,26.7,29.95,SSW,206,3.0,4.0,84,0.01,,---,0.01,VWS V14.01,2013-02-14 18:49:00,
2013-02-14 12:54:00,31.0,26.5,29.95,NNW,348,1.0,6.0,83,0.01,,---,0.01,VWS V14.01,2013-02-14 18:54:00,
2013-02-14 12:59:00,31.0,26.2,29.95,NW,325,1.0,4.0,82,0.01,,---,0.01,VWS V14.01,2013-02-14 18:59:00,
2013-02-14 13:04:00,31.1,26.5,29.95,WNW,289,4.0,4.0,83,0.01,,---,0.01,VWS V14.01,2013-02-14 19:04:00,
2013-02-14 13:09:00,31.2,26.6,29.95,NW,308,1.0,4.0,83,0.01,,---,0.01,VWS V14.01,2013-02-14 19:09:00,
2013-02-14 13:14:00,31.3,26.8,29.95,WNW,296,0.0,3.0,83,0.01,,---,0.01,VWS V14.01,2013-02-14 19:14:00,
2013-02-14 13:19:00,31.6,26.8,29.95,NNW,335,2.0,5.0,82,0.01,,---,0.01,VWS V14.01,2013-02-14 19:19:00,
2013-02-14 13:24:00,31.8,26.9,29.96,WNW,294,4.0,5.0,82,0.02,,---,0.02,VWS V14.01,2013-02-14 19:24:00,
2013-02-14 13:29:00,31.7,26.8,29.96,NW,321,2.0,4.0,82,0.01,,---,0.02,VWS V14.01,2013-02-14 19:29:00,
2013-02-14 13:34:00,31.5,26.4,29.96,WNW,297,2.0,4.0,81,0.01,,---,0.02,VWS V14.01,2013-02-14 19:34:00,
2013-02-14 13:39:00,31.6,26.5,29.96,NW,307,1.0,6.0,81,0.01,,---,0.02,VWS V14.01,2013-02-14 19:39:00,
2013-02-14 13:44:00,31.4,26.2,29.96,West,268,2.0,6.0,81,0.01,,---,0.02,VWS V14.01,2013-02-14 19:44:00,
2013-02-14 13:49:00,30.8,25.7,29.96,West,275,4.0,7.0,81,0.01,,---,0.02,VWS V14.01,2013-02-14 19:49:00,
2013-02-14 13:54:00,30.5,25.7,29.96,WNW,296,1.0,7.0,82,0.01,,---,0.02,VWS V14.01,2013-02-14 19:54:00,
2013-02-14 13:59:00,30.4,25.6,29.96,NW,322,4.0,4.0,82,0.01,,---,0.02,VWS V14.01,2013-02-14 19:59:00,
2013-02-14 14:04:00,30.6,25.8,29.97,WNW,294,3.0,5.0,82,0.01,,---,0.02,VWS V14.01,2013-02-14 20:04:00,
2013-02-14 14:09:00,30.6,25.5,29.97,NNW,328,5.0,5.0,81,0.01,,---,0.02,VWS V14.01,2013-02-14 20:09:00,
2013-02-14 14:14:00,30.6,25.2,29.97,WNW,294,3.0,6.0,80,0.01,,---,0.02,VWS V14.01,2013-02-14 20:14:00,
2013-02-14 14:19:00,30.4,25.0,29.97,West,261,3.0,6.0,80,0.02,,---,0.03,VWS V14.01,2013-02-14 20:19:00,
2013-02-14 14:24:00,30.3,24.6,29.98,West,277,3.0,7.0,79,0.02,,---,0.03,VWS V14.01,2013-02-14 20:24:00,
2013-02-14 14:29:00,30.2,24.5,29.98,NW,322,2.0,6.0,79,0.01,,---,0.03,VWS V14.01,2013-02-14 20:29:00,
2013-02-14 14:34:00,30.5,24.8,29.98,WNW,300,2.0,6.0,79,0.01,,---,0.03,VWS V14.01,2013-02-14 20:34:00,
2013-02-14 14:39:00,30.6,24.6,29.98,WNW,303,2.0,6.0,78,0.01,,---,0.03,VWS V14.01,2013-02-14 20:39:00,
2013-02-14 14:44:00,30.6,24.3,29.99,WNW,292,2.0,6.0,77,0.01,,---,0.03,VWS V14.01,2013-02-14 20:44:00,
2013-02-14 14:49:00,30.7,24.7,29.99,WNW,303,2.0,8.0,78,0.01,,---,0.03,VWS V14.01,2013-02-14 20:49:00,
2013-02-14 14:54:00,30.9,24.9,29.99,WNW,300,3.0,8.0,78,0.01,,---,0.03,VWS V14.01,2013-02-14 20:54:00,
2013-02-14 14:59:00,31.2,24.8,29.99,NW,311,3.0,7.0,77,0.01,,---,0.03,VWS V14.01,2013-02-14 20:59:00,
2013-02-14 15:04:00,31.1,24.4,30.00,WNW,296,4.0,7.0,76,0.01,,---,0.03,VWS V14.01,2013-02-14 21:04:00,
2013-02-14 15:09:00,31.0,24.0,30.00,WNW,289,3.0,7.0,75,0.01,,---,0.03,VWS V14.01,2013-02-14 21:09:00,
2013-02-14 15:14:00,31.0,24.3,30.00,WNW,294,2.0,5.0,76,0.01,,---,0.03,VWS V14.01,2013-02-14 21:14:00,
2013-02-14 15:19:00,31.0,24.0,30.01,West,263,2.0,6.0,75,0.01,,---,0.03,VWS V14.01,2013-02-14 21:19:00,
2013-02-14 15:24:00,30.9,23.3,30.01,NNW,338,4.0,7.0,73,0.01,,---,0.03,VWS V14.01,2013-02-14 21:24:00,
2013-02-14 15:29:00,30.4,22.5,30.01,NNW,332,2.0,7.0,72,0.01,,---,0.04,VWS V14.01,2013-02-14 21:29:00,
2013-02-14 15:34:00,30.2,22.6,30.02,NW,325,3.0,11.0,73,0.01,,---,0.04,VWS V14.01,2013-02-14 21:34:00,
2013-02-14 15:39:00,29.8,21.6,30.02,NW,306,3.0,11.0,71,0.01,,---,0.04,VWS V14.01,2013-02-14 21:39:00,
2013-02-14 15:44:00,29.8,21.6,30.02,North,349,2.0,7.0,71,0.01,,---,0.04,VWS V14.01,2013-02-14 21:44:00,
2013-02-14 15:49:00,29.7,21.1,30.03,NW,310,2.0,9.0,70,0.01,,---,0.04,VWS V14.01,2013-02-14 21:49:00,
2013-02-14 15:54:00,29.6,20.0,30.03,NNW,342,2.0,9.0,67,0.01,,---,0.04,VWS V14.01,2013-02-14 21:54:00,
2013-02-14 15:59:00,29.4,17.6,30.04,North,352,8.0,10.0,61,0.01,,---,0.04,VWS V14.01,2013-02-14 21:59:00,
2013-02-14 16:04:00,28.7,13.8,30.04,WNW,284,6.0,12.0,53,0.01,,---,0.04,VWS V14.01,2013-02-14 22:04:00,
2013-02-14 16:09:00,28.1,13.6,30.05,NW,315,3.0,12.0,54,0.01,,---,0.04,VWS V14.01,2013-02-14 22:09:00,
2013-02-14 16:14:00,28.1,12.3,30.05,North,360,6.0,9.0,51,0.01,,---,0.04,VWS V14.01,2013-02-14 22:14:00,
2013-02-14 16:19:00,28.1,11.9,30.05,NW,315,4.0,9.0,50,0.01,,---,0.04,VWS V14.01,2013-02-14 22:19:00,
2013-02-14 16:24:00,27.7,10.1,30.06,WNW,301,2.0,17.0,47,0.01,,---,0.04,VWS V14.01,2013-02-14 22:24:00,
2013-02-14 16:29:00,27.4,10.8,30.06,SSW,206,3.0,5.0,49,0.00,,---,0.04,VWS V14.01,2013-02-14 22:29:00,
2013-02-14 16:34:00,27.4,10.8,30.06,NNW,341,4.0,7.0,49,0.00,,---,0.04,VWS V14.01,2013-02-14 22:34:00,
2013-02-14 16:39:00,27.3,10.7,30.07,NNE,23,2.0,8.0,49,0.00,,---,0.04,VWS V14.01,2013-02-14 22:39:00,
2013-02-14 16:44:00,27.3,10.7,30.07,North,352,3.0,6.0,49,0.00,,---,0.04,VWS V14.01,2013-02-14 22:44:00,
2013-02-14 16:49:00,27.1,10.5,30.07,SW,219,7.0,9.0,49,0.00,,---,0.04,VWS V14.01,2013-02-14 22:49:00,
2013-02-14 16:54:00,26.8,9.8,30.08,NNW,344,2.0,9.0,48,0.00,,---,0.04,VWS V14.01,2013-02-14 22:54:00,
2013-02-14 16:59:00,26.6,10.0,30.08,East,99,3.0,8.0,49,0.00,,---,0.04,VWS V14.01,2013-02-14 22:59:00,
2013-02-14 17:04:00,26.3,8.8,30.08,NW,316,4.0,10.0,47,0.00,,---,0.04,VWS V14.01,2013-02-14 23:04:00,
2013-02-14 17:08:00,26.0,7.6,30.09,WNW,287,4.0,10.0,45,0.00,,---,0.04,VWS V14.01,2013-02-14 23:08:00,
2013-02-14 17:13:00,25.7,8.3,30.09,West,276,4.0,4.0,47,0.00,,---,0.04,VWS V14.01,2013-02-14 23:13:00,
2013-02-14 17:18:00,25.4,7.5,30.09,NNW,339,2.0,9.0,46,0.00,,---,0.04,VWS V14.01,2013-02-14 23:18:00,
2013-02-14 17:23:00,25.1,8.6,30.10,NW,314,2.0,9.0,49,0.00,,---,0.04,VWS V14.01,2013-02-14 23:23:00,
2013-02-14 17:28:00,24.8,7.9,30.10,WNW,299,2.0,4.0,48,0.00,,---,0.04,VWS V14.01,2013-02-14 23:28:00,
2013-02-14 17:33:00,24.7,8.3,30.10,NNW,327,1.0,4.0,49,0.00,,---,0.04,VWS V14.01,2013-02-14 23:33:00,
2013-02-14 17:38:00,24.4,8.0,30.11,WNW,284,4.0,9.0,49,0.00,,---,0.04,VWS V14.01,2013-02-14 23:38:00,
2013-02-14 17:43:00,24.3,8.4,30.11,WNW,296,3.0,4.0,50,0.00,,---,0.04,VWS V14.01,2013-02-14 23:43:00,
2013-02-14 17:48:00,24.0,8.1,30.11,West,279,5.0,5.0,50,0.00,,---,0.04,VWS V14.01,2013-02-14 23:48:00,
2013-02-14 17:53:00,23.9,7.5,30.12,WNW,294,1.0,7.0,49,0.00,,---,0.04,VWS V14.01,2013-02-14 23:53:00,
2013-02-14 17:58:00,23.9,8.0,30.12,NW,308,2.0,5.0,50,0.00,,---,0.04,VWS V14.01,2013-02-14 23:58:00,
2013-02-14 18:03:00,23.7,7.3,30.12,WNW,291,3.0,6.0,49,0.00,,---,0.04,VWS V14.01,2013-02-15 00:03:00,
2013-02-14 18:08:00,23.6,7.3,30.12,WNW,284,2.0,8.0,49,0.00,,---,0.04,VWS V14.01,2013-02-15 00:08:00,
2013-02-14 18:13:00,23.5,7.2,30.13,NNW,345,1.0,8.0,49,0.00,,---,0.04,VWS V14.01,2013-02-15 00:13:00,
2013-02-14 18:18:00,23.5,7.2,30.13,NW,305,3.0,8.0,49,0.00,,---,0.04,VWS V14.01,2013-02-15 00:18:00,
2013-02-14 18:23:00,23.5,6.7,30.13,North,355,3.0,8.0,48,0.00,,---,0.04,VWS V14.01,2013-02-15 00:23:00,
2013-02-14 18:28:00,23.5,7.2,30.13,NW,322,2.0,4.0,49,0.00,,---,0.04,VWS V14.01,2013-02-15 00:28:00,
2013-02-14 18:33:00,23.4,7.5,30.14,NW,313,2.0,6.0,50,0.00,,---,0.04,VWS V14.01,2013-02-15 00:33:00,
2013-02-14 18:38:00,23.1,7.2,30.14,NW,308,2.0,6.0,50,0.00,,---,0.04,VWS V14.01,2013-02-15 00:38:00,
2013-02-14 18:43:00,22.9,7.9,30.14,NNW,335,1.0,2.0,52,0.00,,---,0.04,VWS V14.01,2013-02-15 00:43:00,
2013-02-14 18:48:00,22.7,7.7,30.15,NW,309,2.0,5.0,52,0.00,,---,0.04,VWS V14.01,2013-02-15 00:48:00,
2013-02-14 18:53:00,22.5,8.8,30.15,NNW,337,2.0,8.0,55,0.00,,---,0.04,VWS V14.01,2013-02-15 00:53:00,
2013-02-14 18:58:00,22.4,9.5,30.15,West,278,2.0,5.0,57,0.00,,---,0.04,VWS V14.01,2013-02-15 00:58:00,
2013-02-14 19:03:00,22.2,9.7,30.15,NW,305,1.0,5.0,58,0.00,,---,0.04,VWS V14.01,2013-02-15 01:03:00,
2013-02-14 19:08:00,22.1,10.0,30.15,NW,313,3.0,9.0,59,0.00,,---,0.04,VWS V14.01,2013-02-15 01:08:00,
2013-02-14 19:13:00,22.0,9.9,30.16,WNW,289,2.0,6.0,59,0.00,,---,0.04,VWS V14.01,2013-02-15 01:13:00,
2013-02-14 19:18:00,21.9,9.8,30.16,WNW,296,2.0,6.0,59,0.00,,---,0.04,VWS V14.01,2013-02-15 01:18:00,
2013-02-14 19:23:00,21.9,9.8,30.16,West,270,2.0,6.0,59,0.00,,---,0.04,VWS V14.01,2013-02-15 01:23:00,
2013-02-14 19:28:00,21.8,9.7,30.17,WNW,285,5.0,7.0,59,0.00,,---,0.04,VWS V14.01,2013-02-15 01:28:00,
2013-02-14 19:33:00,21.7,10.0,30.17,NW,322,3.0,7.0,60,0.00,,---,0.04,VWS V14.01,2013-02-15 01:33:00,
2013-02-14 19:38:00,21.7,9.6,30.17,NW,308,2.0,7.0,59,0.00,,---,0.04,VWS V14.01,2013-02-15 01:38:00,
2013-02-14 19:43:00,21.6,9.9,30.17,NW,326,3.0,6.0,60,0.00,,---,0.04,VWS V14.01,2013-02-15 01:43:00,
2013-02-14 19:48:00,21.6,9.5,30.17,West,276,4.0,6.0,59,0.00,,---,0.04,VWS V14.01,2013-02-15 01:48:00,
2013-02-14 19:53:00,21.5,9.4,30.17,WNW,291,5.0,6.0,59,0.00,,---,0.04,VWS V14.01,2013-02-15 01:53:00,
2013-02-14 20:03:00,21.3,9.2,30.18,NW,312,0.0,0.0,59,0.00,,---,0.04,VWS V14.01,2013-02-15 02:03:00,
2013-02-14 20:08:00,21.2,9.1,30.18,WNW,287,4.0,6.0,59,0.00,,---,0.04,VWS V14.01,2013-02-15 02:08:00,
2013-02-14 20:13:00,21.1,9.4,30.19,NW,320,1.0,2.0,60,0.00,,---,0.04,VWS V14.01,2013-02-15 02:13:00,
2013-02-14 20:18:00,20.9,8.8,30.19,West,277,3.0,6.0,59,0.00,,---,0.04,VWS V14.01,2013-02-15 02:18:00,
2013-02-14 20:23:00,20.8,9.1,30.19,NW,314,1.0,6.0,60,0.00,,---,0.04,VWS V14.01,2013-02-15 02:23:00,
2013-02-14 20:28:00,20.7,9.0,30.19,WNW,296,2.0,3.0,60,0.00,,---,0.04,VWS V14.01,2013-02-15 02:28:00,
2013-02-14 20:33:00,20.6,8.9,30.19,NW,311,2.0,8.0,60,0.00,,---,0.04,VWS V14.01,2013-02-15 02:33:00,
2013-02-14 20:38:00,20.6,8.9,30.19,NW,315,1.0,8.0,60,0.00,,---,0.04,VWS V14.01,2013-02-15 02:38:00,
2013-02-14 20:43:00,20.5,8.8,30.20,WNW,301,1.0,5.0,60,0.00,,---,0.04,VWS V14.01,2013-02-15 02:43:00,
2013-02-14 20:48:00,20.3,9.0,30.20,NW,312,4.0,5.0,61,0.00,,---,0.04,VWS V14.01,2013-02-15 02:48:00,
2013-02-14 20:53:00,20.3,9.0,30.20,North,358,2.0,5.0,61,0.00,,---,0.04,VWS V14.01,2013-02-15 02:53:00,
2013-02-14 20:58:00,20.2,8.9,30.20,NW,317,1.0,4.0,61,0.00,,---,0.04,VWS V14.01,2013-02-15 02:58:00,
2013-02-14 21:03:00,20.2,8.9,30.21,WNW,287,2.0,7.0,61,0.00,,---,0.04,VWS V14.01,2013-02-15 03:03:00,
2013-02-14 21:08:00,20.1,8.8,30.21,WNW,284,2.0,7.0,61,0.00,,---,0.04,VWS V14.01,2013-02-15 03:08:00,
2013-02-14 21:13:00,20.0,9.1,30.21,NW,312,2.0,4.0,62,0.00,,---,0.04,VWS V14.01,2013-02-15 03:13:00,
2013-02-14 21:18:00,19.8,8.5,30.21,NNW,338,3.0,6.0,61,0.00,,---,0.04,VWS V14.01,2013-02-15 03:18:00,
2013-02-14 21:23:00,19.8,8.5,30.22,WNW,303,1.0,9.0,61,0.00,,---,0.04,VWS V14.01,2013-02-15 03:23:00,
2013-02-14 21:28:00,19.8,8.5,30.22,WNW,294,3.0,5.0,61,0.00,,---,0.04,VWS V14.01,2013-02-15 03:28:00,
2013-02-14 21:33:00,19.6,8.4,30.22,NNE,14,3.0,7.0,61,0.00,,---,0.04,VWS V14.01,2013-02-15 03:33:00,
2013-02-14 21:38:00,19.7,8.1,30.22,WNW,289,4.0,8.0,60,0.00,,---,0.04,VWS V14.01,2013-02-15 03:38:00,
2013-02-14 21:43:00,19.6,8.0,30.22,WNW,303,5.0,6.0,60,0.00,,---,0.04,VWS V14.01,2013-02-15 03:43:00,
2013-02-14 21:48:00,19.5,7.9,30.22,NW,320,1.0,6.0,60,0.00,,---,0.04,VWS V14.01,2013-02-15 03:48:00,
2013-02-14 21:53:00,19.4,7.8,30.22,NW,317,1.0,6.0,60,0.00,,---,0.04,VWS V14.01,2013-02-15 03:53:00,
2013-02-14 21:58:00,19.3,7.3,30.22,WNW,287,3.0,6.0,59,0.00,,---,0.04,VWS V14.01,2013-02-15 03:58:00,
2013-02-14 22:03:00,19.3,7.3,30.22,NW,312,2.0,6.0,59,0.00,,---,0.04,VWS V14.01,2013-02-15 04:03:00,
2013-02-14 22:08:00,19.2,7.2,30.22,NW,306,1.0,6.0,59,0.00,,---,0.04,VWS V14.01,2013-02-15 04:08:00,
2013-02-14 22:13:00,19.1,7.1,30.23,NNW,327,3.0,3.0,59,0.00,,---,0.04,VWS V14.01,2013-02-15 04:13:00,
2013-02-14 22:18:00,18.9,6.9,30.23,WNW,286,3.0,5.0,59,0.00,,---,0.04,VWS V14.01,2013-02-15 04:18:00,
2013-02-14 22:23:00,18.8,6.9,30.23,West,278,2.0,5.0,59,0.00,,---,0.04,VWS V14.01,2013-02-15 04:23:00,
2013-02-14 22:28:00,18.5,6.6,30.23,WNW,296,1.0,2.0,59,0.00,,---,0.04,VWS V14.01,2013-02-15 04:28:00,
2013-02-14 22:33:00,18.4,6.5,30.23,WNW,291,1.0,5.0,59,0.00,,---,0.04,VWS V14.01,2013-02-15 04:33:00,
2013-02-14 22:38:00,18.2,6.7,30.23,WNW,295,1.0,5.0,60,0.00,,---,0.04,VWS V14.01,2013-02-15 04:38:00,
2013-02-14 22:43:00,18.0,6.5,30.23,NW,309,1.0,2.0,60,0.00,,---,0.04,VWS V14.01,2013-02-15 04:43:00,
2013-02-14 22:48:00,17.8,6.3,30.23,WNW,287,1.0,3.0,60,0.00,,---,0.04,VWS V14.01,2013-02-15 04:48:00,
2013-02-14 22:53:00,17.6,6.4,30.23,WNW,287,1.0,3.0,61,0.00,,---,0.04,VWS V14.01,2013-02-15 04:53:00,
2013-02-14 22:58:00,17.4,6.3,30.24,WNW,296,1.0,2.0,61,0.00,,---,0.04,VWS V14.01,2013-02-15 04:58:00,
2013-02-14 23:00:00,17.3,6.5,30.24,WNW,293,1.0,2.0,62,0.00,,---,0.04,VWS V14.01,2013-02-15 05:00:00,
2013-02-14 23:05:00,17.2,6.4,30.24,WNW,282,1.0,3.0,62,0.00,,---,0.04,VWS V14.01,2013-02-15 05:05:00,
2013-02-14 23:10:00,17.0,6.6,30.24,WNW,288,1.0,3.0,63,0.00,,---,0.04,VWS V14.01,2013-02-15 05:10:00,
2013-02-14 23:15:00,16.7,6.3,30.24,WSW,250,2.0,2.0,63,0.00,,---,0.04,VWS V14.01,2013-02-15 05:15:00,
2013-02-14 23:20:00,16.6,6.6,30.24,WNW,296,1.0,6.0,64,0.00,,---,0.04,VWS V14.01,2013-02-15 05:20:00,
2013-02-14 23:25:00,16.4,6.7,30.24,WNW,293,6.0,6.0,65,0.00,,---,0.04,VWS V14.01,2013-02-15 05:25:00,
2013-02-14 23:30:00,16.3,6.9,30.25,NW,325,2.0,3.0,66,0.00,,---,0.04,VWS V14.01,2013-02-15 05:30:00,
2013-02-14 23:35:00,16.2,7.2,30.25,WNW,302,0.0,5.0,67,0.00,,---,0.04,VWS V14.01,2013-02-15 05:35:00,
2013-02-14 23:40:00,16.0,7.0,30.25,WNW,298,0.0,5.0,67,0.00,,---,0.04,VWS V14.01,2013-02-15 05:40:00,
2013-02-14 23:45:00,15.9,7.2,30.25,West,281,0.0,3.0,68,0.00,,---,0.04,VWS V14.01,2013-02-15 05:45:00,
2013-02-14 23:50:00,15.8,7.1,30.25,WNW,301,0.0,3.0,68,0.00,,---,0.04,VWS V14.01,2013-02-15 05:50:00,
2013-02-14 23:55:00,15.5,6.8,30.25,West,273,0.0,3.0,68,0.00,,---,0.04,VWS V14.01,2013-02-15 05:55:00,